Regional Weather Roundup
Issued by NWS

Home | Current Version | Previous Version | Graphics & Text | Print | Product List | Glossary On
Versions: 1 2 3 4 5 6 7 8 9 10 11 12 13 14 15 16 17 18 19 20 21 22 23 24 25 26 27 28 29 30 31 32 33 34 35 36 37 38 39 40 41 42 43 44 45 46 47 48 49 50
000
ASUS43 KIND 292009
RWRIN

WEATHER ROUNDUP FOR INDIANA
NATIONAL WEATHER SERVICE INDIANAPOLIS IN
400 PM EDT MON SEP 29 2014

NOTE: "FAIR" INDICATES FEW OR NO CLOUDS BELOW 12,000 FEET WITH NO
SIGNIFICANT WEATHER AND/OR OBSTRUCTIONS TO VISIBILITY.

* - STATION DOES NOT REPORT WEATHER SUCH AS PRECIPITATION OR FOG.

+ - STATION NOT QUALITY CONTROLLED BY THE NATIONAL WEATHER SERVICE.
    USE DATA WITH CAUTION...ESPECIALLY DEWPOINT AND RELATIVE
    HUMIDITY OBSERVATIONS.

INZ001>003-010>013-019-020-292100-
NORTHWEST INDIANA

CITY           SKY/WX    TMP DP  RH WIND       PRES   REMARKS
GARY /AIRPORT/ MOSUNNY   82  57  42 W6        29.97F
KNOX *+        SUNNY     80  54  39 N3        29.95F
LA PORTE +     SUNNY     81  57  44 NW10      29.98F
MICHIGAN CITY+ SUNNY     79  52  38 NW6       29.97F
MONTICELLO +   SUNNY     81  58  45 NW6       29.96F
RENSSELAER +   SUNNY     81  54  39 W5        29.97F
VALPARAISO     NOT AVBL

$$

LMZ046-743>745-292100-
SOUTHERN LAKE MICHIGAN

STATION/POSITION TIME  TEMP WIND        PRES
                       AIR  DIR/SP/G
                 (UTC) (F)  (DEG/KT/KT) (MB)
MICHIGAN CITY    2000   74  240/  1/  2   N/A

$$

INZ004-005-014>016-021>024-292100-
NORTH CENTRAL INDIANA

CITY           SKY/WX    TMP DP  RH WIND       PRES   REMARKS
ELKHART        SUNNY     79  55  44 NW8       29.97F
LOGANSPORT +   SUNNY     79  52  38 NW5       29.97F
PERU/GRISSOM   SUNNY     80  56  43 VRB5      29.96F
ROCHESTER +    SUNNY     81  55  41 NW3       29.97F
SOUTH BEND     SUNNY     81  54  39 NW8       29.97F
WARSAW +       SUNNY     79  55  44 NW8       29.96F

$$

INZ006>009-017-018-025>027-292100-
NORTHEAST INDIANA

CITY           SKY/WX    TMP DP  RH WIND       PRES   REMARKS
ANGOLA *+      SUNNY     81  54  39 N8        29.96S
AUBURN +       SUNNY     79  48  34 N6        29.96F
FORT WAYNE     SUNNY     79  50  36 N7        29.96F
HUNTINGTON +   SUNNY     78  53  42 NW5       29.96F

$$

INZ028-029-035-036-043>045-051>053-292100-
WEST CENTRAL INDIANA

CITY           SKY/WX    TMP DP  RH WIND       PRES   REMARKS
GREENCASTLE +  SUNNY     79  52  38 NW5       29.98F
LAFAYETTE      MOSUNNY   81  57  43 VRB7      29.97F
TERRE HAUTE    SUNNY     83  52  34 NW8       29.98F

$$

INZ030>032-037>040-046>048-054>057-064-065-292100-
CENTRAL INDIANA

CITY           SKY/WX    TMP DP  RH WIND       PRES   REMARKS
CP ATTERBURY + SUNNY     81  46  30 W3        29.97F
FRANKFORT +    SUNNY     82  51  34 W3        29.99F
GREENWOOD *+   SUNNY     82  32  16 N8        29.97F
INDIANAPOLIS   SUNNY     82  40  22 W12       29.96F
-EAGLE CREEK   SUNNY     81  43  26 N3        29.96F
KOKOMO *+      SUNNY     81  52  36 N12       29.96F
MARION +       SUNNY     79  45  29 NW7       29.97F
MT COMFORT *+  SUNNY     81  21  11 NW7       29.98S
SHELBYVILLE    SUNNY     84  48  28 MISG      29.96F
ZIONSVILLE +   SUNNY     80  44  27 NW9       29.98F

$$

INZ033-034-041-042-049-050-058-059-292100-
EAST CENTRAL INDIANA

CITY           SKY/WX    TMP DP  RH WIND       PRES   REMARKS
MUNCIE         SUNNY     81  46  29 N6        29.96F

$$

INZ060-061-067>069-081>083-085>088-292100-
SOUTHWEST INDIANA

CITY           SKY/WX    TMP DP  RH WIND       PRES   REMARKS
EVANSVILLE     SUNNY     85  49  28 W8        29.96F
WASHINGTON +   SUNNY     85  47  26 N10G17    29.96F

$$

INZ062-063-066-070>080-084-089>092-292100-
SOUTH CENTRAL AND SOUTHEAST INDIANA

CITY           SKY/WX    TMP DP  RH WIND       PRES   REMARKS
BLOOMINGTON    SUNNY     81  49  32 W8        29.98F

$$



USA.gov is the U.S. government's official web portal to all federal, state and local government web resources and services.